PRIVATE WETTERSTATION BILLIGHEIM-ALLFELD                       ZURCK
Wetterdaten: Dienstag, 07.01.2014
Datum Zeit Temp. A. Temp. A. min Temp. A. max Feuchte A. Luftdruck Regen Wind Richtung Richtung Sonnenschein ET Solar Taupunkt Windchill Windben Empfang
07.01.2014 00:00 6,9 C 6,9 C 7,1 C 87 % 1012,7 hPa 0,0 l/m 0,0 km/h (0 Bft) S 180 0 min 0,000 mm 0 W/m 4,9 C 6,9 C 1,6 km/h (1 Bft) 100 %
07.01.2014 00:10 6,7 C 6,7 C 6,9 C 87 % 1012,9 hPa 0,0 l/m 1,6 km/h (1 Bft) O 90 0 min 0,000 mm 0 W/m 4,7 C 6,7 C 8,0 km/h (2 Bft) 99 %
07.01.2014 00:20 6,6 C 6,6 C 6,7 C 87 % 1013,1 hPa 0,0 l/m 1,6 km/h (1 Bft) W-NW 292 0 min 0,000 mm 0 W/m 4,6 C 6,6 C 4,8 km/h (1 Bft) 100 %
07.01.2014 00:30 6,4 C 6,4 C 6,6 C 87 % 1013,3 hPa 0,0 l/m 3,2 km/h (1 Bft) S-SO 157 0 min 0,000 mm 0 W/m 4,4 C 6,4 C 8,0 km/h (2 Bft) 100 %
07.01.2014 00:40 6,4 C 6,4 C 6,4 C 86 % 1013,6 hPa 0,0 l/m 1,6 km/h (1 Bft) S-SW 202 0 min 0,000 mm 0 W/m 4,2 C 6,4 C 8,0 km/h (2 Bft) 100 %
07.01.2014 00:50 6,4 C 6,4 C 6,4 C 85 % 1013,6 hPa 0,0 l/m 1,6 km/h (1 Bft) S-SW 202 0 min 0,000 mm 0 W/m 4,1 C 6,4 C 6,4 km/h (2 Bft) 100 %
07.01.2014 01:00 6,4 C 6,4 C 6,4 C 85 % 1014,0 hPa 0,0 l/m 1,6 km/h (1 Bft) S-SW 202 0 min 0,000 mm 0 W/m 4,1 C 6,4 C 6,4 km/h (2 Bft) 99 %
07.01.2014 01:10 6,6 C 6,4 C 6,6 C 84 % 1013,9 hPa 0,0 l/m 1,6 km/h (1 Bft) S 180 0 min 0,000 mm 0 W/m 4,1 C 6,6 C 6,4 km/h (2 Bft) 99 %
07.01.2014 01:20 6,9 C 6,6 C 6,9 C 84 % 1014,1 hPa 0,0 l/m 3,2 km/h (1 Bft) S 180 0 min 0,000 mm 0 W/m 4,4 C 6,9 C 9,7 km/h (2 Bft) 100 %
07.01.2014 01:30 7,1 C 6,9 C 7,1 C 83 % 1014,2 hPa 0,0 l/m 4,8 km/h (1 Bft) S 180 0 min 0,000 mm 0 W/m 4,4 C 7,1 C 9,7 km/h (2 Bft) 99 %
07.01.2014 01:40 7,3 C 7,1 C 7,3 C 82 % 1014,2 hPa 0,0 l/m 4,8 km/h (1 Bft) S 180 0 min 0,000 mm 0 W/m 4,4 C 7,3 C 9,7 km/h (2 Bft) 100 %
07.01.2014 01:50 7,4 C 7,3 C 7,4 C 82 % 1014,5 hPa 0,0 l/m 3,2 km/h (1 Bft) S 180 0 min 0,000 mm 0 W/m 4,5 C 7,4 C 9,7 km/h (2 Bft) 100 %
07.01.2014 02:00 7,4 C 7,4 C 7,4 C 82 % 1014,8 hPa 0,0 l/m 4,8 km/h (1 Bft) S 180 0 min 0,025 mm 0 W/m 4,5 C 7,4 C 9,7 km/h (2 Bft) 91 %
07.01.2014 02:10 7,4 C 7,4 C 7,4 C 82 % 1014,8 hPa 0,0 l/m 3,2 km/h (1 Bft) S-SO 157 0 min 0,000 mm 0 W/m 4,5 C 7,4 C 9,7 km/h (2 Bft) 98 %
07.01.2014 02:20 7,6 C 7,4 C 7,6 C 82 % 1014,8 hPa 0,0 l/m 1,6 km/h (1 Bft) S-SO 157 0 min 0,000 mm 0 W/m 4,7 C 7,6 C 6,4 km/h (2 Bft) 100 %
07.01.2014 02:30 7,6 C 7,6 C 7,6 C 82 % 1014,7 hPa 0,0 l/m 3,2 km/h (1 Bft) S-SO 157 0 min 0,000 mm 0 W/m 4,7 C 7,6 C 8,0 km/h (2 Bft) 100 %
07.01.2014 02:40 7,7 C 7,6 C 7,7 C 81 % 1014,9 hPa 0,0 l/m 3,2 km/h (1 Bft) S-SW 202 0 min 0,000 mm 0 W/m 4,7 C 7,7 C 8,0 km/h (2 Bft) 100 %
07.01.2014 02:50 8,0 C 7,7 C 8,0 C 80 % 1015,1 hPa 0,0 l/m 4,8 km/h (1 Bft) S-SW 202 0 min 0,000 mm 0 W/m 4,8 C 8,0 C 9,7 km/h (2 Bft) 100 %
07.01.2014 03:00 8,3 C 8,0 C 8,3 C 78 % 1015,3 hPa 0,0 l/m 4,8 km/h (1 Bft) SW 225 0 min 0,025 mm 0 W/m 4,7 C 8,3 C 16,1 km/h (3 Bft) 100 %
07.01.2014 03:10 8,8 C 8,4 C 8,8 C 77 % 1015,5 hPa 0,0 l/m 4,8 km/h (1 Bft) SW 225 0 min 0,000 mm 0 W/m 5,0 C 8,8 C 16,1 km/h (3 Bft) 100 %
07.01.2014 03:20 9,0 C 8,8 C 9,0 C 76 % 1015,5 hPa 0,0 l/m 6,4 km/h (2 Bft) S-SW 202 0 min 0,000 mm 0 W/m 5,0 C 9,0 C 16,1 km/h (3 Bft) 100 %
07.01.2014 03:30 9,1 C 8,9 C 9,1 C 76 % 1015,8 hPa 0,0 l/m 4,8 km/h (1 Bft) SW 225 0 min 0,000 mm 0 W/m 5,1 C 9,1 C 17,7 km/h (3 Bft) 100 %
07.01.2014 03:40 9,4 C 9,1 C 9,4 C 75 % 1015,9 hPa 0,0 l/m 4,8 km/h (1 Bft) W-SW 247 0 min 0,000 mm 0 W/m 5,2 C 9,4 C 14,5 km/h (3 Bft) 100 %
07.01.2014 03:50 9,6 C 9,4 C 9,6 C 74 % 1015,5 hPa 0,0 l/m 6,4 km/h (2 Bft) S-SW 202 0 min 0,000 mm 0 W/m 5,2 C 9,6 C 17,7 km/h (3 Bft) 100 %
07.01.2014 04:00 9,6 C 9,6 C 9,6 C 74 % 1015,6 hPa 0,0 l/m 4,8 km/h (1 Bft) S 180 0 min 0,025 mm 0 W/m 5,2 C 9,6 C 16,1 km/h (3 Bft) 100 %
07.01.2014 04:10 9,4 C 9,4 C 9,6 C 75 % 1015,8 hPa 0,0 l/m 8,0 km/h (2 Bft) S 180 0 min 0,000 mm 0 W/m 5,2 C 8,2 C 14,5 km/h (3 Bft) 100 %
07.01.2014 04:20 9,2 C 9,2 C 9,4 C 76 % 1015,8 hPa 0,0 l/m 6,4 km/h (2 Bft) S 180 0 min 0,000 mm 0 W/m 5,2 C 9,2 C 11,3 km/h (2 Bft) 100 %
07.01.2014 04:30 8,8 C 8,8 C 9,2 C 77 % 1015,8 hPa 0,0 l/m 4,8 km/h (1 Bft) S 180 0 min 0,000 mm 0 W/m 5,0 C 8,8 C 16,1 km/h (3 Bft) 100 %
07.01.2014 04:40 8,4 C 8,4 C 8,8 C 79 % 1015,8 hPa 0,0 l/m 1,6 km/h (1 Bft) S 180 0 min 0,000 mm 0 W/m 5,0 C 8,4 C 8,0 km/h (2 Bft) 100 %
07.01.2014 04:50 7,8 C 7,8 C 8,4 C 81 % 1015,9 hPa 0,0 l/m 1,6 km/h (1 Bft) S 180 0 min 0,000 mm 0 W/m 4,7 C 7,8 C 6,4 km/h (2 Bft) 100 %
07.01.2014 05:00 7,7 C 7,6 C 7,8 C 81 % 1015,9 hPa 0,0 l/m 0,0 km/h (0 Bft) S 180 0 min 0,025 mm 0 W/m 4,7 C 7,7 C 6,4 km/h (2 Bft) 89 %
07.01.2014 05:10 7,7 C 7,6 C 7,7 C 81 % 1015,9 hPa 0,0 l/m 0,0 km/h (0 Bft) S-SO 157 0 min 0,000 mm 0 W/m 4,7 C 7,7 C 1,6 km/h (1 Bft) 99 %
07.01.2014 05:20 7,8 C 7,7 C 7,8 C 81 % 1015,9 hPa 0,0 l/m 0,0 km/h (0 Bft) W-SW 247 0 min 0,000 mm 0 W/m 4,7 C 7,8 C 3,2 km/h (1 Bft) 100 %
07.01.2014 05:30 7,9 C 7,8 C 7,9 C 81 % 1015,9 hPa 0,0 l/m 0,0 km/h (0 Bft) W-SW 247 0 min 0,000 mm 0 W/m 4,8 C 7,9 C 3,2 km/h (1 Bft) 100 %
07.01.2014 05:40 8,1 C 7,9 C 8,1 C 81 % 1016,0 hPa 0,0 l/m 0,0 km/h (0 Bft) W-SW 247 0 min 0,000 mm 0 W/m 5,0 C 8,1 C 1,6 km/h (1 Bft) 100 %
07.01.2014 05:50 8,2 C 8,1 C 8,2 C 81 % 1016,0 hPa 0,0 l/m 0,0 km/h (0 Bft) W-SW 247 0 min 0,000 mm 0 W/m 5,1 C 8,2 C 1,6 km/h (1 Bft) 100 %
07.01.2014 06:00 8,4 C 8,2 C 8,4 C 81 % 1016,2 hPa 0,0 l/m 0,0 km/h (0 Bft) W-SW 247 0 min 0,000 mm 0 W/m 5,3 C 8,4 C 3,2 km/h (1 Bft) 100 %
07.01.2014 06:10 8,6 C 8,4 C 8,7 C 80 % 1016,3 hPa 0,0 l/m 1,6 km/h (1 Bft) S-SO 157 0 min 0,000 mm 0 W/m 5,3 C 8,6 C 9,7 km/h (2 Bft) 100 %
07.01.2014 06:20 7,9 C 7,9 C 8,5 C 82 % 1016,4 hPa 0,0 l/m 3,2 km/h (1 Bft) S-SO 157 0 min 0,000 mm 0 W/m 5,0 C 7,9 C 6,4 km/h (2 Bft) 100 %
07.01.2014 06:30 8,2 C 7,9 C 8,2 C 81 % 1016,4 hPa 0,0 l/m 3,2 km/h (1 Bft) SO 135 0 min 0,000 mm 0 W/m 5,1 C 8,2 C 6,4 km/h (2 Bft) 100 %
07.01.2014 06:40 8,3 C 8,2 C 8,3 C 81 % 1016,4 hPa 0,0 l/m 1,6 km/h (1 Bft) SO 135 0 min 0,000 mm 0 W/m 5,2 C 8,3 C 6,4 km/h (2 Bft) 100 %
07.01.2014 06:50 8,2 C 8,2 C 8,3 C 81 % 1016,4 hPa 0,0 l/m 0,0 km/h (0 Bft) S-SO 157 0 min 0,000 mm 0 W/m 5,1 C 8,2 C 3,2 km/h (1 Bft) 100 %
07.01.2014 07:00 8,0 C 8,0 C 8,2 C 81 % 1016,6 hPa 0,0 l/m 1,6 km/h (1 Bft) S-SO 157 0 min 0,025 mm 0 W/m 4,9 C 8,0 C 4,8 km/h (1 Bft) 100 %
07.01.2014 07:10 8,1 C 8,0 C 8,2 C 80 % 1016,7 hPa 0,0 l/m 1,6 km/h (1 Bft) S-SO 157 0 min 0,000 mm 0 W/m 4,9 C 8,1 C 4,8 km/h (1 Bft) 100 %
07.01.2014 07:20 8,3 C 8,1 C 8,3 C 79 % 1016,7 hPa 0,0 l/m 1,6 km/h (1 Bft) S-SO 157 0 min 0,000 mm 0 W/m 4,9 C 8,3 C 4,8 km/h (1 Bft) 100 %
07.01.2014 07:30 8,2 C 8,2 C 8,3 C 79 % 1016,8 hPa 0,0 l/m 0,0 km/h (0 Bft) S-SO 157 0 min 0,000 mm 0 W/m 4,8 C 8,2 C 3,2 km/h (1 Bft) 100 %
07.01.2014 07:40 8,0 C 8,0 C 8,2 C 78 % 1016,8 hPa 0,0 l/m 0,0 km/h (0 Bft) S-SO 157 0 min 0,000 mm 0 W/m 4,4 C 8,0 C 1,6 km/h (1 Bft) 100 %
07.01.2014 07:50 7,9 C 7,9 C 8,0 C 79 % 1016,8 hPa 0,0 l/m 0,0 km/h (0 Bft) S-SO 157 0 min 0,000 mm 0 W/m 4,5 C 7,9 C 3,2 km/h (1 Bft) 100 %
07.01.2014 08:00 7,8 C 7,8 C 7,9 C 78 % 1017,0 hPa 0,0 l/m 0,0 km/h (0 Bft) S-SO 157 0 min 0,025 mm 0 W/m 4,2 C 7,8 C 3,2 km/h (1 Bft) 100 %
07.01.2014 08:10 7,8 C 7,8 C 7,8 C 78 % 1017,0 hPa 0,0 l/m 1,6 km/h (1 Bft) S-SO 157 0 min 0,000 mm 0 W/m 4,2 C 7,8 C 4,8 km/h (1 Bft) 100 %
07.01.2014 08:20 7,7 C 7,7 C 7,8 C 78 % 1017,0 hPa 0,0 l/m 1,6 km/h (1 Bft) SO 135 0 min 0,000 mm 0 W/m 4,1 C 7,7 C 4,8 km/h (1 Bft) 100 %
07.01.2014 08:30 7,6 C 7,6 C 7,7 C 78 % 1017,3 hPa 0,0 l/m 0,0 km/h (0 Bft) SO 135 0 min 0,000 mm 5 W/m 4,0 C 7,6 C 3,2 km/h (1 Bft) 100 %
07.01.2014 08:40 7,2 C 7,2 C 7,6 C 79 % 1017,3 hPa 0,0 l/m 0,0 km/h (0 Bft) SO 135 0 min 0,000 mm 14 W/m 3,8 C 7,2 C 1,6 km/h (1 Bft) 100 %
07.01.2014 08:50 6,6 C 6,6 C 7,1 C 81 % 1017,5 hPa 0,0 l/m 0,0 km/h (0 Bft) SO 135 0 min 0,000 mm 23 W/m 3,6 C 6,6 C 3,2 km/h (1 Bft) 100 %
07.01.2014 09:00 6,4 C 6,4 C 6,6 C 83 % 1017,5 hPa 0,0 l/m 1,6 km/h (1 Bft) SO 135 0 min 0,000 mm 32 W/m 3,7 C 6,4 C 4,8 km/h (1 Bft) 100 %
07.01.2014 09:10 6,3 C 6,3 C 6,4 C 84 % 1017,6 hPa 0,0 l/m 0,0 km/h (0 Bft) W 270 0 min 0,000 mm 56 W/m 3,8 C 6,3 C 3,2 km/h (1 Bft) 100 %
07.01.2014 09:20 6,6 C 6,3 C 6,6 C 84 % 1017,6 hPa 0,0 l/m 0,0 km/h (0 Bft) W 270 0 min 0,000 mm 79 W/m 4,1 C 6,6 C 1,6 km/h (1 Bft) 100 %
07.01.2014 09:30 6,7 C 6,6 C 6,7 C 84 % 1017,7 hPa 0,0 l/m 0,0 km/h (0 Bft) W-NW 292 0 min 0,000 mm 100 W/m 4,2 C 6,7 C 6,4 km/h (2 Bft) 100 %
07.01.2014 09:40 7,0 C 6,7 C 7,0 C 83 % 1017,7 hPa 0,0 l/m 1,6 km/h (1 Bft) SO 135 0 min 0,000 mm 100 W/m 4,3 C 7,0 C 6,4 km/h (2 Bft) 100 %
07.01.2014 09:50 7,4 C 7,0 C 7,4 C 81 % 1017,7 hPa 0,0 l/m 0,0 km/h (0 Bft) S-SO 157 0 min 0,000 mm 69 W/m 4,4 C 7,4 C 3,2 km/h (1 Bft) 100 %
07.01.2014 10:00 7,7 C 7,4 C 7,7 C 81 % 1017,8 hPa 0,0 l/m 3,2 km/h (1 Bft) S-SO 157 0 min 0,025 mm 105 W/m 4,7 C 7,7 C 9,7 km/h (2 Bft) 100 %
07.01.2014 10:10 8,1 C 7,7 C 8,1 C 80 % 1017,8 hPa 0,0 l/m 4,8 km/h (1 Bft) S 180 0 min 0,000 mm 132 W/m 4,9 C 8,1 C 11,3 km/h (2 Bft) 100 %
07.01.2014 10:20 8,2 C 8,1 C 8,2 C 79 % 1017,9 hPa 0,0 l/m 3,2 km/h (1 Bft) S-SO 157 0 min 0,000 mm 105 W/m 4,8 C 8,2 C 11,3 km/h (2 Bft) 100 %
07.01.2014 10:30 8,4 C 8,2 C 8,5 C 79 % 1018,0 hPa 0,0 l/m 1,6 km/h (1 Bft) SO 135 0 min 0,000 mm 107 W/m 5,0 C 8,4 C 8,0 km/h (2 Bft) 100 %
07.01.2014 10:40 8,3 C 8,3 C 8,4 C 80 % 1018,0 hPa 0,0 l/m 1,6 km/h (1 Bft) S-SO 157 10 min 0,000 mm 237 W/m 5,1 C 8,3 C 8,0 km/h (2 Bft) 100 %
07.01.2014 10:50 8,8 C 8,3 C 8,8 C 79 % 1017,9 hPa 0,0 l/m 1,6 km/h (1 Bft) S-SO 157 10 min 0,000 mm 239 W/m 5,4 C 8,8 C 9,7 km/h (2 Bft) 100 %
07.01.2014 11:00 9,6 C 8,9 C 9,6 C 77 % 1018,0 hPa 0,0 l/m 1,6 km/h (1 Bft) S 180 10 min 0,051 mm 244 W/m 5,8 C 9,6 C 8,0 km/h (2 Bft) 100 %
07.01.2014 11:10 10,1 C 9,6 C 10,1 C 75 % 1017,9 hPa 0,0 l/m 3,2 km/h (1 Bft) S-SW 202 10 min 0,000 mm 257 W/m 5,9 C 10,1 C 9,7 km/h (2 Bft) 100 %
07.01.2014 11:20 10,1 C 10,1 C 10,1 C 75 % 1017,9 hPa 0,0 l/m 4,8 km/h (1 Bft) S-SO 157 10 min 0,000 mm 253 W/m 5,9 C 10,1 C 9,7 km/h (2 Bft) 99 %
07.01.2014 11:30 10,4 C 10,1 C 10,4 C 73 % 1017,8 hPa 0,0 l/m 4,8 km/h (1 Bft) S-SO 157 10 min 0,000 mm 260 W/m 5,8 C 10,4 C 14,5 km/h (3 Bft) 100 %
07.01.2014 11:40 10,6 C 10,4 C 10,6 C 74 % 1017,8 hPa 0,0 l/m 4,8 km/h (1 Bft) S-SO 157 10 min 0,000 mm 285 W/m 6,2 C 10,6 C 11,3 km/h (2 Bft) 100 %
07.01.2014 11:50 10,9 C 10,6 C 10,9 C 73 % 1017,7 hPa 0,0 l/m 8,0 km/h (2 Bft) S-SW 202 10 min 0,000 mm 360 W/m 6,3 C 9,8 C 17,7 km/h (3 Bft) 100 %
07.01.2014 12:00 10,9 C 10,6 C 10,9 C 74 % 1017,6 hPa 0,0 l/m 7,4 km/h (2 Bft) S 180 10 min 0,003 mm 179 W/m 6,5 C 10,2 C 16,1 km/h (3 Bft) 98 %
07.01.2014 12:10 10,8 C 10,8 C 10,9 C 75 % 1017,6 hPa 0,0 l/m 3,6 km/h (1 Bft) S 191 10 min 0,127 mm 162 W/m 6,5 C 10,8 C 11,3 km/h (2 Bft) 98 %
07.01.2014 12:20 10,7 C 10,7 C 10,8 C 75 % 1017,5 hPa 0,0 l/m 1,6 km/h (1 Bft) S 186 10 min 0,000 mm 171 W/m 6,5 C 10,7 C 8,0 km/h (2 Bft) 98 %
07.01.2014 12:30 10,8 C 10,7 C 10,8 C 76 % 1017,4 hPa 0,0 l/m 1,5 km/h (1 Bft) S-SW 197 10 min 0,000 mm 156 W/m 6,7 C 10,8 C 9,7 km/h (2 Bft) 97 %
07.01.2014 12:40 10,9 C 10,8 C 10,9 C 76 % 1017,3 hPa 0,0 l/m 1,1 km/h (1 Bft) S-SO 161 10 min 0,000 mm 179 W/m 6,8 C 10,9 C 8,0 km/h (2 Bft) 98 %
07.01.2014 12:50 11,2 C 10,9 C 11,2 C 76 % 1017,2 hPa 0,0 l/m 2,5 km/h (1 Bft) S-SW 192 10 min 0,000 mm 167 W/m 7,1 C 11,2 C 9,7 km/h (2 Bft) 98 %
07.01.2014 13:00 11,4 C 11,2 C 11,4 C 75 % 1017,2 hPa 0,0 l/m 1,7 km/h (1 Bft) S-SW 196 0 min 0,076 mm 149 W/m 7,1 C 11,4 C 9,7 km/h (2 Bft) 98 %
07.01.2014 13:10 11,7 C 11,4 C 11,7 C 75 % 1017,2 hPa 0,0 l/m 4,3 km/h (1 Bft) S-SW 206 10 min 0,000 mm 163 W/m 7,4 C 11,7 C 12,9 km/h (3 Bft) 98 %
07.01.2014 13:20 11,8 C 11,7 C 11,8 C 74 % 1017,2 hPa 0,0 l/m 1,8 km/h (1 Bft) S 184 0 min 0,000 mm 141 W/m 7,3 C 11,8 C 8,0 km/h (2 Bft) 99 %
07.01.2014 13:30 11,9 C 11,8 C 11,9 C 75 % 1017,2 hPa 0,0 l/m 1,2 km/h (1 Bft) S-SW 203 0 min 0,000 mm 121 W/m 7,6 C 11,9 C 8,0 km/h (2 Bft) 99 %
07.01.2014 13:40 11,9 C 11,9 C 11,9 C 73 % 1017,1 hPa 0,0 l/m 0,0 km/h (0 Bft) S-SO 164 0 min 0,000 mm 120 W/m 7,2 C 11,9 C 1,6 km/h (1 Bft) 90 %
07.01.2014 13:50 12,0 C 11,9 C 12,0 C 74 % 1017,1 hPa 0,0 l/m 0,3 km/h (0 Bft) S-SO 165 0 min 0,000 mm 113 W/m 7,5 C 12,0 C 4,8 km/h (1 Bft) 99 %
07.01.2014 14:00 12,0 C 12,0 C 12,0 C 75 % 1017,0 hPa 0,0 l/m 3,0 km/h (1 Bft) S 170 0 min 0,076 mm 102 W/m 7,7 C 12,0 C 8,0 km/h (2 Bft) 100 %
07.01.2014 14:10 12,1 C 12,0 C 12,1 C 74 % 1016,9 hPa 0,0 l/m 0,6 km/h (0 Bft) S 185 0 min 0,000 mm 111 W/m 7,6 C 12,1 C 6,4 km/h (2 Bft) 100 %
07.01.2014 14:20 12,0 C 12,0 C 12,1 C 74 % 1016,7 hPa 0,0 l/m 1,4 km/h (1 Bft) S 191 0 min 0,000 mm 98 W/m 7,5 C 12,0 C 8,0 km/h (2 Bft) 100 %
07.01.2014 14:30 12,1 C 12,0 C 12,1 C 72 % 1016,7 hPa 0,0 l/m 0,7 km/h (0 Bft) S-SO 153 0 min 0,000 mm 79 W/m 7,2 C 12,1 C 4,8 km/h (1 Bft) 100 %
07.01.2014 14:40 12,1 C 12,1 C 12,1 C 73 % 1016,8 hPa 0,0 l/m 1,0 km/h (0 Bft) S-SO 166 0 min 0,000 mm 72 W/m 7,4 C 12,1 C 4,8 km/h (1 Bft) 100 %
07.01.2014 14:50 12,0 C 12,0 C 12,1 C 72 % 1017,0 hPa 0,0 l/m 1,0 km/h (0 Bft) S-SO 155 0 min 0,000 mm 54 W/m 7,1 C 12,0 C 6,4 km/h (2 Bft) 100 %
07.01.2014 15:00 11,9 C 11,9 C 12,0 C 74 % 1017,0 hPa 0,0 l/m 0,3 km/h (0 Bft) S-SO 159 0 min 0,051 mm 58 W/m 7,4 C 11,9 C 4,8 km/h (1 Bft) 100 %
07.01.2014 15:10 11,8 C 11,8 C 11,9 C 74 % 1017,0 hPa 0,0 l/m 0,0 km/h (0 Bft) S-SO 159 0 min 0,000 mm 51 W/m 7,3 C 11,8 C 1,6 km/h (1 Bft) 100 %
07.01.2014 15:20 11,7 C 11,7 C 11,8 C 75 % 1017,0 hPa 0,0 l/m 0,4 km/h (0 Bft) S-SO 159 0 min 0,000 mm 46 W/m 7,4 C 11,7 C 3,2 km/h (1 Bft) 100 %
07.01.2014 15:30 11,6 C 11,6 C 11,7 C 76 % 1017,0 hPa 0,0 l/m 0,0 km/h (0 Bft) S-SO 159 0 min 0,000 mm 44 W/m 7,5 C 11,6 C 1,6 km/h (1 Bft) 100 %
07.01.2014 15:40 11,5 C 11,5 C 11,6 C 77 % 1017,1 hPa 0,0 l/m 1,8 km/h (1 Bft) S-SO 167 0 min 0,000 mm 33 W/m 7,6 C 11,5 C 4,8 km/h (1 Bft) 91 %
07.01.2014 15:50 11,4 C 11,4 C 11,5 C 76 % 1017,0 hPa 0,0 l/m 1,6 km/h (1 Bft) S-SO 153 0 min 0,000 mm 37 W/m 7,3 C 11,4 C 6,4 km/h (2 Bft) 100 %
07.01.2014 16:00 11,6 C 11,4 C 11,6 C 75 % 1017,0 hPa 0,0 l/m 2,1 km/h (1 Bft) SO 144 0 min 0,000 mm 40 W/m 7,3 C 11,6 C 8,0 km/h (2 Bft) 100 %
07.01.2014 16:10 11,9 C 11,6 C 11,9 C 73 % 1017,0 hPa 0,0 l/m 1,6 km/h (1 Bft) SO 144 0 min 0,025 mm 25 W/m 7,2 C 11,9 C 6,4 km/h (2 Bft) 100 %
07.01.2014 16:20 11,8 C 11,8 C 11,9 C 74 % 1017,1 hPa 0,0 l/m 0,8 km/h (0 Bft) S-SO 158 0 min 0,000 mm 9 W/m 7,3 C 11,8 C 8,0 km/h (2 Bft) 100 %
07.01.2014 16:30 11,5 C 11,5 C 11,8 C 74 % 1017,0 hPa 0,0 l/m 1,6 km/h (1 Bft) SO 143 0 min 0,000 mm 5 W/m 7,0 C 11,5 C 8,0 km/h (2 Bft) 100 %
07.01.2014 16:40 11,3 C 11,3 C 11,5 C 75 % 1016,9 hPa 0,0 l/m 0,8 km/h (0 Bft) SO 133 0 min 0,000 mm 0 W/m 7,0 C 11,3 C 6,4 km/h (2 Bft) 100 %
07.01.2014 16:50 11,2 C 11,2 C 11,3 C 75 % 1017,0 hPa 0,0 l/m 0,9 km/h (0 Bft) S-SO 148 0 min 0,000 mm 0 W/m 6,9 C 11,2 C 4,8 km/h (1 Bft) 100 %
07.01.2014 17:00 10,9 C 10,9 C 11,2 C 76 % 1017,0 hPa 0,1 l/m 1,3 km/h (1 Bft) SO 140 0 min 0,000 mm 0 W/m 6,8 C 10,9 C 4,8 km/h (1 Bft) 100 %
07.01.2014 17:10 10,9 C 10,9 C 10,9 C 76 % 1016,8 hPa 0,0 l/m 0,9 km/h (0 Bft) SO 140 0 min 0,000 mm 0 W/m 6,8 C 10,9 C 4,8 km/h (1 Bft) 100 %
07.01.2014 17:20 10,8 C 10,8 C 10,9 C 76 % 1016,8 hPa 0,0 l/m 0,0 km/h (0 Bft) SO 129 0 min 0,000 mm 0 W/m 6,7 C 10,8 C 1,6 km/h (1 Bft) 99 %
07.01.2014 17:30 10,8 C 10,8 C 10,9 C 77 % 1016,9 hPa 0,0 l/m 0,0 km/h (0 Bft) SO 139 0 min 0,000 mm 0 W/m 6,9 C 10,8 C 1,6 km/h (1 Bft) 100 %
07.01.2014 17:40 10,4 C 10,4 C 10,8 C 78 % 1016,9 hPa 0,0 l/m 0,2 km/h (0 Bft) SO 139 0 min 0,000 mm 0 W/m 6,7 C 10,4 C 3,2 km/h (1 Bft) 100 %
07.01.2014 17:50 9,9 C 9,9 C 10,4 C 79 % 1016,7 hPa 0,0 l/m 0,3 km/h (0 Bft) SO 139 0 min 0,000 mm 0 W/m 6,4 C 9,9 C 3,2 km/h (1 Bft) 100 %
07.01.2014 18:00 9,8 C 9,8 C 9,9 C 81 % 1016,8 hPa 0,0 l/m 0,4 km/h (0 Bft) S-SO 151 0 min 0,026 mm 0 W/m 6,7 C 9,8 C 4,8 km/h (1 Bft) 99 %
07.01.2014 18:10 9,3 C 9,3 C 9,8 C 81 % 1016,7 hPa 0,0 l/m 0,0 km/h (0 Bft) S-SO 151 0 min 0,000 mm 0 W/m 6,2 C 9,3 C 1,6 km/h (1 Bft) 100 %
07.01.2014 18:20 8,8 C 8,8 C 9,3 C 83 % 1016,7 hPa 0,0 l/m 0,4 km/h (0 Bft) S-SO 151 0 min 0,000 mm 0 W/m 6,1 C 8,8 C 3,2 km/h (1 Bft) 100 %
07.01.2014 18:30 8,4 C 8,4 C 8,8 C 85 % 1016,7 hPa 0,0 l/m 0,0 km/h (0 Bft) S-SO 151 0 min 0,000 mm 0 W/m 6,0 C 8,4 C 1,6 km/h (1 Bft) 100 %
07.01.2014 18:40 8,3 C 8,3 C 8,4 C 85 % 1016,5 hPa 0,0 l/m 0,6 km/h (0 Bft) SO 140 0 min 0,000 mm 0 W/m 5,9 C 8,3 C 4,8 km/h (1 Bft) 100 %
07.01.2014 18:50 8,3 C 8,3 C 8,4 C 85 % 1016,8 hPa 0,0 l/m 0,3 km/h (0 Bft) S 177 0 min 0,000 mm 0 W/m 5,9 C 8,3 C 3,2 km/h (1 Bft) 91 %
07.01.2014 19:00 8,1 C 8,1 C 8,3 C 85 % 1017,0 hPa 0,0 l/m 0,8 km/h (0 Bft) N-NW 341 0 min 0,000 mm 0 W/m 5,7 C 8,1 C 3,2 km/h (1 Bft) 100 %
07.01.2014 19:10 7,8 C 7,8 C 8,1 C 86 % 1016,8 hPa 0,0 l/m 0,4 km/h (0 Bft) N 360 0 min 0,000 mm 0 W/m 5,6 C 7,8 C 3,2 km/h (1 Bft) 100 %
07.01.2014 19:20 7,8 C 7,8 C 7,8 C 86 % 1016,9 hPa 0,0 l/m 0,0 km/h (0 Bft) N 360 0 min 0,000 mm 0 W/m 5,6 C 7,8 C 0,0 km/h (0 Bft) 100 %
07.01.2014 19:30 7,7 C 7,7 C 7,8 C 87 % 1017,0 hPa 0,0 l/m 0,0 km/h (0 Bft) N 360 0 min 0,000 mm 0 W/m 5,7 C 7,7 C 0,0 km/h (0 Bft) 100 %
07.01.2014 19:40 7,7 C 7,7 C 7,7 C 87 % 1016,9 hPa 0,0 l/m 0,0 km/h (0 Bft) N 360 0 min 0,000 mm 0 W/m 5,7 C 7,7 C 1,6 km/h (1 Bft) 100 %
07.01.2014 19:50 7,6 C 7,6 C 7,7 C 87 % 1016,9 hPa 0,0 l/m 0,0 km/h (0 Bft) N 360 0 min 0,000 mm 0 W/m 5,6 C 7,6 C 0,0 km/h (0 Bft) 100 %
07.01.2014 20:00 7,5 C 7,5 C 7,6 C 87 % 1017,1 hPa 0,0 l/m 0,1 km/h (0 Bft) N 360 0 min 0,000 mm 0 W/m 5,5 C 7,5 C 1,6 km/h (1 Bft) 100 %
07.01.2014 20:10 7,4 C 7,4 C 7,5 C 88 % 1017,2 hPa 0,0 l/m 0,0 km/h (0 Bft) N 360 0 min 0,000 mm 0 W/m 5,5 C 7,4 C 0,0 km/h (0 Bft) 100 %
07.01.2014 20:20 7,5 C 7,4 C 7,5 C 88 % 1017,1 hPa 0,0 l/m 1,0 km/h (0 Bft) N-NO 18 0 min 0,000 mm 0 W/m 5,6 C 7,5 C 3,2 km/h (1 Bft) 100 %
07.01.2014 20:30 7,7 C 7,5 C 7,7 C 87 % 1017,2 hPa 0,0 l/m 1,4 km/h (1 Bft) S-SO 154 0 min 0,000 mm 0 W/m 5,7 C 7,7 C 9,7 km/h (2 Bft) 100 %
07.01.2014 20:40 8,5 C 7,7 C 8,5 C 85 % 1017,3 hPa 0,0 l/m 3,9 km/h (1 Bft) S 175 0 min 0,000 mm 0 W/m 6,1 C 8,5 C 11,3 km/h (2 Bft) 100 %
07.01.2014 20:50 8,6 C 8,4 C 8,6 C 85 % 1017,4 hPa 0,0 l/m 2,7 km/h (1 Bft) S-SO 158 0 min 0,000 mm 0 W/m 6,2 C 8,6 C 6,4 km/h (2 Bft) 100 %
07.01.2014 21:00 9,0 C 8,6 C 9,0 C 84 % 1017,3 hPa 0,0 l/m 5,8 km/h (2 Bft) S-SO 163 0 min 0,000 mm 0 W/m 6,4 C 9,0 C 12,9 km/h (3 Bft) 100 %
07.01.2014 21:10 9,1 C 9,0 C 9,1 C 84 % 1017,4 hPa 0,0 l/m 6,4 km/h (2 Bft) S 180 0 min 0,000 mm 0 W/m 6,5 C 9,1 C 14,5 km/h (3 Bft) 100 %
07.01.2014 21:20 8,7 C 8,7 C 9,1 C 86 % 1017,6 hPa 0,0 l/m 6,4 km/h (2 Bft) S 180 0 min 0,000 mm 0 W/m 6,5 C 8,7 C 11,3 km/h (2 Bft) 100 %
07.01.2014 21:30 8,6 C 8,6 C 8,6 C 87 % 1017,6 hPa 0,0 l/m 8,0 km/h (2 Bft) S 180 0 min 0,000 mm 0 W/m 6,6 C 7,4 C 14,5 km/h (3 Bft) 100 %
07.01.2014 21:40 8,6 C 8,6 C 8,6 C 87 % 1017,8 hPa 0,2 l/m 6,4 km/h (2 Bft) S 180 0 min 0,000 mm 0 W/m 6,6 C 8,6 C 12,9 km/h (3 Bft) 100 %
07.01.2014 21:50 8,6 C 8,5 C 8,6 C 87 % 1017,8 hPa 0,0 l/m 6,4 km/h (2 Bft) S 180 0 min 0,000 mm 0 W/m 6,6 C 8,6 C 12,9 km/h (3 Bft) 100 %
07.01.2014 22:00 8,6 C 8,6 C 8,6 C 87 % 1017,7 hPa 0,0 l/m 4,8 km/h (1 Bft) S 180 0 min 0,025 mm 0 W/m 6,6 C 8,6 C 16,1 km/h (3 Bft) 100 %
07.01.2014 22:10 8,6 C 8,6 C 8,7 C 87 % 1017,9 hPa 0,0 l/m 4,8 km/h (1 Bft) S-SW 202 0 min 0,000 mm 0 W/m 6,6 C 8,6 C 9,7 km/h (2 Bft) 100 %
07.01.2014 22:20 8,3 C 8,3 C 8,6 C 88 % 1017,9 hPa 0,2 l/m 4,8 km/h (1 Bft) S 180 0 min 0,000 mm 0 W/m 6,4 C 8,3 C 16,1 km/h (3 Bft) 100 %
07.01.2014 22:30 8,4 C 8,3 C 8,4 C 88 % 1018,2 hPa 0,0 l/m 8,0 km/h (2 Bft) S-SW 202 0 min 0,000 mm 0 W/m 6,5 C 7,2 C 16,1 km/h (3 Bft) 100 %
07.01.2014 22:40 8,3 C 8,3 C 8,4 C 88 % 1018,0 hPa 0,2 l/m 4,8 km/h (1 Bft) S-SW 202 0 min 0,000 mm 0 W/m 6,4 C 8,3 C 9,7 km/h (2 Bft) 100 %
07.01.2014 22:50 8,4 C 8,3 C 8,4 C 88 % 1017,8 hPa 0,0 l/m 4,8 km/h (1 Bft) S-SO 157 0 min 0,000 mm 0 W/m 6,5 C 8,4 C 9,7 km/h (2 Bft) 100 %
07.01.2014 23:00 8,5 C 8,4 C 8,5 C 88 % 1017,9 hPa 0,0 l/m 0,0 km/h (0 Bft) S-SW 202 0 min 0,000 mm 0 W/m 6,6 C 8,5 C 8,0 km/h (2 Bft) 100 %
07.01.2014 23:10 8,5 C 8,4 C 8,5 C 88 % 1017,7 hPa 0,0 l/m 3,2 km/h (1 Bft) SO 135 0 min 0,000 mm 0 W/m 6,6 C 8,5 C 8,0 km/h (2 Bft) 100 %
07.01.2014 23:20 8,6 C 8,5 C 8,6 C 88 % 1017,8 hPa 0,0 l/m 1,6 km/h (1 Bft) S 180 0 min 0,000 mm 0 W/m 6,7 C 8,6 C 6,4 km/h (2 Bft) 100 %
07.01.2014 23:30 8,5 C 8,5 C 8,6 C 88 % 1017,8 hPa 0,0 l/m 0,0 km/h (0 Bft) S 180 0 min 0,000 mm 0 W/m 6,6 C 8,5 C 1,6 km/h (1 Bft) 100 %
07.01.2014 23:40 8,5 C 8,5 C 8,5 C 88 % 1017,9 hPa 0,0 l/m 1,6 km/h (1 Bft) SO 135 0 min 0,000 mm 0 W/m 6,6 C 8,5 C 4,8 km/h (1 Bft) 100 %
07.01.2014 23:50 8,6 C 8,5 C 8,6 C 88 % 1017,9 hPa 0,0 l/m 0,0 km/h (0 Bft) N 0 0 min 0,000 mm 0 W/m 6,7 C 8,6 C 0,0 km/h (0 Bft) 100 %
_ Min-Zeit 09:10 09:10 00:40 14:30 00:00 - 00:00 - - - - - 08:50 09:10 19:20 05:00
Minimum _ 6,3 C 6,3 C 6,4 C 72 % 1012,7 hPa - 0,0 km/h (0 Bft) - - - - - 3,6 C 6,3 C 0,0 km/h (0 Bft) 89 %
_ Max-Zeit 14:10 14:40 14:10 20:10 22:30 21:40 04:10 - - 10:40 12:10 11:50 14:00 14:10 03:30 00:00
Maximum _ 12,1 C 12,1 C 12,1 C 88 % 1018,2 hPa 0,2 l/m 8,0 km/h
S (2 Bft)
- - 10 min 0,127 mm 360 W/m 7,7 C 12,1 C 17,7 km/h
SW (3 Bft)
100 %
Durchschnitt _ 8,9 C 8,8 C 9,0 C 80 % 1016,7 hPa #0,7 l/m 2,2 km/h (1 Bft) S - #2:30 h #0,635 mm 117 W/m 5,7 C 8,9 C 7,2 km/h (2 Bft) 99 %
PRIVATE WETTERSTATION BILLIGHEIM-ALLFELD - www.neckar-odenwald-wetter.de - Holger Sonntag